Location: Liscomb Game Sanctuary
(45.1633°N, 62.5575°W)
Time: 00:43:56
(UTC-03:00)

Daily predictions for brighter satellites

Satellite Brightness Start Highest point End
(mag) Time Altitude Azimuth Time Altitude Azimuth Time Altitude Azimuth
SL-16 R/B 4.2 00:13:10 16° W 00:16:06 24° NW 00:20:40 10° N
Nadezhda 4 Rocket 4.5 00:13:08 10° NNW 00:18:15 58° NW 00:18:15 58° NW
Cosmos 1844 Rocket 3.7 00:15:54 10° NNW 00:19:29 41° NNW 00:19:29 41° NNW
H-2A R/B 4.4 00:27:29 14° WNW 00:27:29 14° WNW 00:29:08 10° NW
Cosmos 2360 Rocket 3.4 00:30:08 39° NW 00:30:08 39° NW 00:34:47 10° NNE
ATLAS 3B R/B 3.9 00:37:05 35° ENE 00:37:05 35° ENE 00:41:31 10° NE
Cosmos 2219 Rocket 3.6 00:51:40 32° NNE 00:51:40 32° NNE 00:54:35 10° NNE
SL-16 R/B 4.1 01:09:49 21° ENE 01:09:49 21° ENE 01:12:02 10° NE
Cosmos 2237 Rocket 3.6 01:12:27 34° NNE 01:12:27 34° NNE 01:15:35 10° NNE
Cosmos 2333 Rocket 3.4 01:15:40 38° NNE 01:15:40 38° NNE 01:19:08 10° NNE
Lacrosse 4 Rocket 4.2 01:19:38 17° NNW 01:19:38 17° NNW 01:21:29 10° N
COSMOS 2428 4.2 01:30:56 29° NW 01:30:56 29° NW 01:35:18 10° N
ATLAS CENTAUR R/B 4.1 01:38:27 10° NNW 01:40:45 19° NNE 01:40:45 19° NNE
COSMOS 2455 3.7 01:43:38 46° N 01:43:38 46° N 01:48:07 10° NNE
Cosmos 2278 Rocket 4.1 01:38:16 10° NW 01:40:20 22° NW 01:40:20 22° NW
CZ-3A R/B 3.5 01:56:35 80° NNE 01:56:35 80° NNE 02:00:55 10° NE
CZ-2C R/B 3.9 01:56:54 10° N 02:00:36 37° NNW 02:00:36 37° NNW
CZ-4C R/B 3.3 02:08:30 40° NE 02:08:30 40° NE 02:12:27 10° NE
ATLAS 3B R/B 3.4 02:24:20 47° WNW 02:25:16 49° NW 02:32:23 10° NNE
Cosmos 2369 Rocket 3.4 02:20:31 10° NNW 02:25:43 37° NE 02:26:34 35° ENE
SL-16 R/B 4.4 02:24:45 12° ESE 02:29:08 25° ENE 02:34:04 10° N
Cosmos 2219 Rocket 4.1 02:33:22 20° NW 02:33:36 20° NW 02:37:40 10° N
Cosmos 1607 4.2 02:41:34 59° NNW 02:41:34 59° NNW 02:47:05 10° NNE
Cosmos 1943 Rocket 4.2 02:36:29 10° N 02:41:05 24° NE 02:45:38 10° ESE
SL-16 R/B 3.1 02:51:42 39° NW 02:51:42 39° NW 02:56:22 10° NNE
Cosmos 2237 Rocket 4.0 02:54:16 21° NW 02:54:35 21° NW 02:58:51 10° N
Cosmos 2333 Rocket 4.2 02:57:40 18° NW 02:58:29 18° NW 03:02:25 10° N
SL-08 R/B 4.5 03:07:42 37° NNW 03:07:42 37° NNW 03:10:32 10° NNW
ERS-2 4.5 03:06:03 10° NE 03:08:01 22° ENE 03:08:01 22° ENE
ATLAS 5 CENTAUR R/B 3.1 03:15:35 32° ESE 03:15:35 32° ESE 03:19:46 10° NE
USA 234 4.0 03:11:58 10° ENE 03:17:56 36° SE 03:18:44 35° SE
IRS-1C 4.1 03:15:07 10° NNE 03:20:21 77° E 03:20:21 77° E
Cosmos 1331 Rocket 4.4 03:17:31 10° NNW 03:21:39 55° NNW 03:21:39 55° NNW
IRS-1D 4.5 03:18:18 10° NNE 03:23:16 41° E 03:24:10 38° ESE
Spot 4 Rocket 4.3 03:18:47 10° NNE 03:23:54 60° E 03:24:03 60° ESE
AQUA 4.2 03:19:12 10° NNE 03:23:09 60° N 03:23:09 60° N
USA 238 DEB 4.5 03:22:18 37° WNW 03:24:04 43° NW 03:30:44 10° NNE
USA 238 4.5 03:22:25 37° WNW 03:24:09 43° NW 03:30:50 10° NNE
ARIANE 5 R/B 3.1 03:23:57 10° NNE 03:29:03 49° E 03:29:50 45° SE
Meteor 1-27 4.1 03:29:30 80° SE 03:29:45 83° E 03:35:21 10° NNE
Okean O Rocket 4.4 03:28:00 10° ENE 03:29:51 12° E 03:31:41 10° ESE
Cosmos 158 Rocket 4.4 03:31:29 51° NW 03:31:29 51° NW 03:35:45 10° NNE
IRAS Rocket 4.2 03:27:15 10° NNE 03:32:54 77° ESE 03:33:31 68° SSE
Cosmos 1603 4.2 03:33:47 47° WNW 03:33:53 47° WNW 03:39:26 10° NNE
In-Cosmos 22 Rocket 4.2 03:28:39 10° NNW 03:33:16 62° NW 03:33:16 62° NW
Cosmos 2315 Rocket 4.4 03:34:35 39° SSE 03:36:46 60° E 03:42:58 10° NNE
NOSS 3-2 (A) 3.6 03:36:49 56° W 03:37:49 63° NW 03:44:33 10° NE
CZ-2D R/B 2.8 03:34:32 10° NNE 03:39:38 48° E 03:41:02 38° SE
ADEOS 3.4 03:35:59 10° NNE 03:41:15 88° WNW 03:41:31 81° SSW
Cosmos 389 Rocket 4.5 03:46:43 23° E 03:47:01 23° E 03:49:52 10° NE
CENTAUR R/B 3.4 03:46:30 31° SSE 03:48:40 41° ESE 03:54:59 10° NE
Cosmos 1726 3.9 03:50:48 25° NNW 03:50:48 25° NNW 03:52:41 10° N
Cosmos 1892 3.6 03:48:12 10° N 03:50:52 42° N 03:50:52 42° N
EO 1 Del DPAF 4.1 03:51:59 43° ESE 03:52:42 49° ENE 03:56:30 10° N
UNKNOWN OBJECT B 3.9 03:50:06 10° NNE 03:53:34 36° E 03:53:54 35° ESE
CZ-4C R/B 3.6 03:53:41 25° WNW 03:55:33 30° NNW 04:01:02 10° NNE
NOSS 3-2 (C) 3.7 03:54:31 47° W 03:56:06 59° NW 04:02:50 10° NE
Abrixas rocket 3.6 03:59:20 40° NE 03:59:20 40° NE 04:01:49 10° E
Cosmos 1943 3.3 04:00:39 53° WSW 04:01:36 61° WNW 04:07:13 10° NNE
NPP 4.4 03:57:23 10° N 04:02:14 35° WNW 04:02:33 35° WNW
Meteor 2-3 Rocket 4.0 03:56:54 10° NNW 04:02:26 49° W 04:02:39 48° W
Cosmos 1862 Rocket 4.1 04:02:12 42° SE 04:03:19 56° E 04:07:39 10° NNE
Cosmos 1869 3.8 04:03:44 51° SE 04:04:16 56° E 04:08:10 10° NNE
Resurs 1-4 Rocket 2.0 04:01:50 10° NNE 04:07:09 85° ESE 04:08:50 45° S
Cosmos 2242 Rocket 3.6 04:07:15 65° W 04:07:23 65° W 04:11:57 10° N
COSMOS 2406 4.3 04:06:05 21° SSE 04:09:22 41° ESE 04:14:43 10° NE
Cosmos 2369 Rocket 3.1 04:04:37 10° NW 04:08:16 31° WNW 04:08:16 31° WNW
Cosmos 2251 Rocket 4.1 04:09:49 40° W 04:10:24 41° WNW 04:15:22 10° N
SL-16 R/B 2.5 04:09:51 37° SSW 04:12:18 63° WSW 04:18:29 10° NNW
Cosmos 1709 Rocket 4.1 04:12:47 10° NNW 04:18:58 56° W 04:21:24 35° SSW
SL-27 R/B 3.2 04:19:50 44° SE 04:20:31 51° ESE 04:24:03 10° NNE
Cosmos 1455 2.2 04:22:45 63° W 04:22:49 63° W 04:26:43 10° N
Cosmos 1943 Rocket 2.1 04:19:41 10° NNW 04:25:18 63° WSW 04:30:51 10° S
Cosmos 1733 Rocket 3.0 04:21:00 10° NNW 04:25:20 61° W 04:26:05 52° SW
MTI 3.8 04:26:16 65° SSE 04:26:42 84° ENE 04:30:04 10° NNW
MOS 1-B 4.3 04:28:25 10° NNE 04:34:15 84° WNW 04:37:46 25° SSW
Cosmos 1408 3.0 04:30:53 10° N 04:34:37 64° E 04:38:03 12° SSE
BREEZE-M DEB (TANK) 3.3 04:36:58 28° SE 04:36:58 28° SE 04:38:17 10° ESE
CZ-2C R/B 3.9 04:32:26 10° SSE 04:36:50 70° ENE 04:41:16 10° N
IRS-1C Rocket 4.5 04:33:14 10° NNE 04:38:30 64° ESE 04:43:09 13° S
Cosmos 2074 Rocket 3.9 04:35:53 10° N 04:42:07 82° W 04:48:21 10° S
ERS-2 3.5 04:39:51 10° NNW 04:42:51 24° WNW 04:42:51 24° WNW
Cosmos 2327 Rocket 4.4 04:37:59 10° N 04:44:06 82° W 04:50:16 10° S
SL-08 ROCKET BODY 4.4 04:39:02 10° N 04:45:06 86° W 04:51:13 10° S
CZ-2D R/B 3.5 04:40:52 10° N 04:45:15 74° WNW 04:47:23 29° SSW
PSLV R/B 3.8 04:44:08 10° NNE 04:47:55 76° ESE 04:50:20 21° S
Cosmos 2184 Rocket 4.0 04:42:03 10° N 04:48:26 77° W 04:54:46 10° S
Cosmos 1656 Rocket 3.5 04:47:11 10° NNW 04:52:38 79° WSW 04:58:01 10° SSE
Cosmos 1825 2.0 04:50:48 10° NNW 04:54:36 70° W 04:57:55 13° S
Cosmos 1908 Rocket 3.5 04:51:42 10° NNW 04:56:04 64° W 05:00:21 10° S
ATLAS 5 CENTAUR R/B 2.6 04:57:08 24° W 04:59:43 43° NW 05:04:50 10° NNE
PAYLOAD B 4.3 04:54:23 10° NNE 04:59:59 79° ESE 05:05:29 10° S
USA 234 3.3 04:54:43 10° NE 05:01:15 74° NNW 05:06:05 20° WSW
Cosmos 1610 Rocket 4.5 04:56:15 10° N 05:02:38 83° W 05:08:54 10° S
SeaSat 1 2.4 04:57:48 10° SSE 05:02:40 60° WSW 05:07:33 10° NW
Okean O Rocket 1.6 05:02:15 10° N 05:06:44 72° WNW 05:10:29 14° SSW
ARIANE 5 R/B 3.8 05:03:40 10° N 05:07:51 25° WNW 05:10:10 18° W
BREEZE-M DEB (TANK) 3.7 05:04:03 13° W 05:08:59 34° NNW 05:11:45 10° NE
Cosmos 2221 Rocket 3.5 05:06:19 11° SSW 05:10:38 80° W 05:15:04 10° N
MOZ.5/SAFIR/RUBIN 5/SL-8 3.9 05:06:26 10° S 05:10:55 49° W 05:15:27 10° NNW
Cosmos 2341 Rocket 4.4 05:05:21 10° N 05:11:39 68° E 05:17:56 10° SSE
Okean-O 3.6 05:11:12 10° NNE 05:15:30 47° E 05:19:46 10° S
Cosmos 1703 Rocket 3.6 05:11:59 12° SSW 05:16:04 63° W 05:20:32 10° N
Aureole 3 Rocket 3.6 05:12:47 10° SSW 05:19:23 78° W 05:24:03 10° N
CZ-2D R/B 3.3 05:15:11 10° N 05:19:26 25° WNW 05:22:22 16° WSW
Cosmos 2285 Rocket 4.3 05:15:03 10° NNW 05:21:06 44° WSW 05:27:04 10° S
Cosmos 389 Rocket 3.9 05:20:49 18° W 05:21:53 21° WNW 05:24:39 10° NNW
ADEOS Rocket 3.9 05:18:17 10° NNE 05:26:05 75° ESE 05:33:47 10° S
UNKNOWN OBJECT B 4.4 05:25:22 10° NNW 05:27:53 18° WNW 05:29:24 14° W
PSLV R/B 3.8 05:26:38 10° NNE 05:31:02 78° ESE 05:35:25 10° S
USA 116 4.5 05:26:12 10° SSE 05:31:07 85° ENE 05:36:29 10° NNW
Cosmos 1862 4.4 05:28:55 10° NW 05:32:08 24° W 05:35:21 10° SW
Meteor 1-26 Rocket 4.3 05:26:55 10° SSW 05:32:45 77° W 05:38:41 10° N
Cosmos 2151 Rocket 3.9 05:28:39 10° N 05:33:03 69° E 05:37:26 10° SSE
Abrixas rocket 2.3 05:32:22 10° WNW 05:35:39 56° SSW 05:38:56 10° SE
Meteor 2-13 Rocket 4.4 05:31:14 10° N 05:37:20 88° W 05:43:23 10° S
Feng Yun 1-1 Rocket 4.5 05:33:29 10° NNE 05:38:54 72° ESE 05:44:19 10° S
CENTAUR R/B 3.1 05:33:42 13° WSW 05:39:15 47° NW 05:46:07 10° NNE
Cosmos 2278 4.1 05:34:13 10° NNW 05:39:57 73° ENE 05:45:39 10° SSE
Cosmos 1190 Rocket 4.1 05:35:55 10° SW 05:41:01 60° WNW 05:46:11 10° NNE
COSMOS 2487 2.6 05:39:07 10° SSW 05:42:41 61° WNW 05:46:17 10° NNE
Meteor 1-14 Rocket 4.4 05:38:44 10° NNW 05:44:29 61° W 05:50:18 10° S
Resurs 1-4 Rocket 3.9 05:43:17 10° NNW 05:46:18 16° WNW 05:49:18 10° W
Okean 1-7 3.4 05:42:16 10° SSW 05:46:25 46° WNW 05:50:38 10° N
Thor Agena Rocket 4.0 05:46:30 10° SSW 05:51:17 38° W 05:56:10 10° NNW
Meteor PRIRODA 3.7 05:47:49 10° NNE 05:51:37 88° WNW 05:55:23 10° SSW
COSMOS 2406 4.0 05:48:29 10° WSW 05:53:44 35° NW 05:59:01 10° NNE
Cosmos 2369 3.9 05:48:50 10° NNW 05:54:37 84° ENE 06:00:21 10° SSE
Okean 2 Rocket 3.9 05:53:04 10° NNW 05:57:02 31° W 06:00:58 10° SSW
BREEZE-M DEB (TANK) 4.3 05:52:59 10° WNW 05:57:23 63° NNE 06:09:21 10° ESE
ADEOS II 2.1 05:52:31 10° N 05:57:47 75° WNW 06:03:01 10° SSW
Meteor 2-10 Rocket 3.8 05:52:39 10° SSW 05:58:27 83° W 06:04:09 10° N
CZ-4B R/B 3.8 05:54:20 10° N 05:59:08 36° WNW 06:03:54 10° SW
Cosmos 1954 Rocket 4.0 05:54:16 10° SSW 05:59:26 86° WNW 06:04:42 10° NNE
Okean 1 Rocket 4.2 05:56:55 10° N 06:01:09 49° ENE 06:05:24 10° SSE
